Find Starlink 31146

NORAD ID: 58769 Int'l Des: 2024-011 Owner: SPXS Country: US Constellation: starlink operational
LEOCIRCULAR

リアルタイム位置

3D地球を読み込み中...

Starlink 31146について

説明を読み込み中...

次回通過

Passes for default location (London). Set your location on the main map for personalized predictions.

高度履歴

Loading altitude history...

軌道要素

1 58769U 24011E 26125.26789448 .00000111 00000-0 15871-4 0 9996
2 58769 53.1594 110.8081 0001128 94.2265 265.8864 15.30197789128935
Epoch: May 5, 2026 • Age: 13 hours

現在のステータス

高度 476.0 km
速度 7.63 km/s
衛星直下点 25.88°N, 20.82°W
打ち上げ日 Jan 14, 2024
運用期間 2.3 years
タイプ internet

技術仕様

分類 Payload
質量 730.00 kg
乾燥質量 700.00 kg
総質量 730.00 kg
長さ 0.30 m
直径 4.10 m
スパン 29.00 m
形状 Box + pan
製造者 SPXS
バスタイプ Starlink V2M
フェーズステータス In Orbit
所有者/国 SPXS/US

Most Searched